CSN1723 ZBAD-ZBAD

Flight info

Callsign CSN1723
Flight time 0h 13m
Altitude 16700
Route ELKU4K/19R ELKUR W40 PANKI
Aircraft A20N/M-SDE3FGHIRWY/P

Departure

Time 2026-05-04 06:59
Airport Beijing Daxing International Airport (ZBAD)

Arrival

Time 2026-05-04 07:13
Airport Beijing Daxing International Airport (ZBAD)
Time Latitude Longitude Altitude Speed Heading
2026-05-04 06:59 39.31062 116.72475 13714 ft 287 kts 349°
2026-05-04 06:59 39.33062 116.72161 13696 ft 285 kts 348°
2026-05-04 06:59 39.35009 116.71849 13452 ft 282 kts 349°
2026-05-04 06:59 39.36948 116.71537 13002 ft 282 kts 349°
2026-05-04 07:01 39.50289 116.69403 10079 ft 272 kts 350°
2026-05-04 07:01 39.52160 116.69103 9665 ft 271 kts 350°
2026-05-04 07:02 39.54018 116.68805 9253 ft 269 kts 350°
2026-05-04 07:02 39.55879 116.68506 8840 ft 268 kts 350°
2026-05-04 07:02 39.57718 116.68209 8431 ft 267 kts 349°
2026-05-04 07:02 39.59452 116.67562 8003 ft 261 kts 327°
2026-05-04 07:03 39.60853 116.66098 7605 ft 255 kts 313°
2026-05-04 07:03 39.62079 116.64461 7197 ft 254 kts 310°
2026-05-04 07:03 39.63275 116.62801 6790 ft 253 kts 310°
2026-05-04 07:03 39.64468 116.61134 6411 ft 250 kts 310°
2026-05-04 07:04 39.65634 116.59508 6227 ft 240 kts 310°
2026-05-04 07:04 39.66743 116.57960 6046 ft 231 kts 309°
2026-05-04 07:04 39.67816 116.56467 5863 ft 221 kts 309°
2026-05-04 07:04 39.68837 116.55049 5688 ft 212 kts 309°
2026-05-04 07:05 39.69828 116.53672 5517 ft 204 kts 309°
2026-05-04 07:05 39.70776 116.52356 5335 ft 197 kts 308°
2026-05-04 07:05 39.71454 116.50890 5041 ft 189 kts 277°
2026-05-04 07:05 39.71486 116.49198 4750 ft 184 kts 263°
2026-05-04 07:06 39.71194 116.45925 4184 ft 182 kts 260°
2026-05-04 07:06 39.71035 116.44308 3900 ft 182 kts 260°
2026-05-04 07:06 39.70725 116.42739 3607 ft 178 kts 235°
2026-05-04 07:07 39.69820 116.41747 3477 ft 165 kts 208°
2026-05-04 07:08 39.63269 116.40623 2653 ft 132 kts 177°
2026-05-04 07:09 39.62352 116.40754 2477 ft 132 kts 177°
2026-05-04 07:09 39.61443 116.40887 2302 ft 132 kts 176°
2026-05-04 07:09 39.60531 116.41026 2127 ft 131 kts 176°
2026-05-04 07:09 39.59618 116.41167 1951 ft 131 kts 176°
2026-05-04 07:10 39.58723 116.41307 1779 ft 131 kts 176°
2026-05-04 07:10 39.57843 116.41446 1610 ft 130 kts 176°
2026-05-04 07:12 39.51594 116.42433 374 ft 128 kts 175°
2026-05-04 07:12 39.50729 116.42575 222 ft 125 kts 178°
2026-05-04 07:12 39.50075 116.42670 137 ft 123 kts 176°
2026-05-04 07:12 39.49346 116.42777 90 ft 82 kts 174°
2026-05-04 07:13 39.49021 116.42842 90 ft 32 kts 178°
2026-05-04 07:13 39.48810 116.42835 90 ft 28 kts 194°
2026-05-04 07:13 39.48691 116.42786 90 ft 20 kts 200°
2026-05-04 07:14 39.48669 116.42554 90 ft 15 kts 353°
2026-05-04 07:14 39.48774 116.42540 90 ft 14 kts 353°
2026-05-04 07:15 39.48874 116.42525 90 ft 14 kts 355°
2026-05-04 07:15 39.48974 116.42508 90 ft 16 kts 352°
2026-05-04 07:15 39.49106 116.42484 90 ft 20 kts 352°
2026-05-04 07:15 39.49242 116.42462 90 ft 19 kts 352°
2026-05-04 07:16 39.49368 116.42429 90 ft 17 kts 333°
2026-05-04 07:16 39.49471 116.42351 90 ft 16 kts 327°
2026-05-04 07:16 39.49574 116.42297 90 ft 15 kts 352°
2026-05-04 07:16 39.49678 116.42280 90 ft 14 kts 353°
2026-05-04 07:17 39.49751 116.42211 90 ft 13 kts 280°
2026-05-04 07:17 39.49748 116.42115 90 ft 6 kts 268°
2026-05-04 07:17 39.49771 116.42081 90 ft 5 kts 348°
2026-05-04 07:17 39.49809 116.42073 90 ft 5 kts 341°
2026-05-04 07:18 39.49838 116.42055 90 ft 3 kts 332°
2026-05-04 07:18 39.49846 116.42049 90 ft 0 kts 332°